North Platte, NE

5:50 AM CST on November 20, 2019 (GMT -0600)
North Platte Regional-Bird

Weather History for KLBF - October, 2019

Change the Weather History Date:

Sunday, October 20, 2019

  Actual Average Record
Temperature  
Mean Temperature 49 °F 48 °F  
Max Temperature 60 °F 63 °F 92 °F (1947)
Min Temperature 38 °F 32 °F 14 °F (1916)
Degree Days  
Heating Degree Days 16 18  
Month to date heating degree days 340 279  
Since 1 July heating degree days 370 450  
Cooling Degree Days 0 0  
Month to date cooling degree days 0 0  
Year to date cooling degree days 922 765  
Moisture  
Dew Point 30 °F    
Average Humidity 45    
Maximum Humidity 67    
Minimum Humidity 23    
Precipitation  
Precipitation T in 0.05 in 0.94 in (1953)
Month to date precipitation 0.28 1.07  
Year to date precipitation 27.10 18.70  
Snow  
Snow 0.00 in 0.10 in 2.50 in (1936)
Month to date snowfall T 1.1  
Since 1 July snowfall T 1.3  
Since 1 September snowfall T 1.3  
Snow Depth 0.00 in    
Sea Level Pressure  
Sea Level Pressure 29.56 in    
Wind  
Wind Speed 18 mph (WSW)    
Max Wind Speed 37 mph    
Max Gust Speed 49 mph    
Visibility 10 miles    
Events Rain    
T = Trace of Precipitation, MM = Missing Value Source: NWS Daily Summary

Daily Weather History Graph

Daily Weather History Graph

Search for Another Location

Airport or City:

Astronomy

Oct. 20, 2019 Rise Set
Actual Time 7:59 AM CDT 6:54 PM CDT
Civil Twilight 7:31 AM CDT 7:22 PM CDT
Nautical Twilight 6:59 AM CDT 7:54 PM CDT
Astronomical Twilight 6:27 AM CDT 8:26 PM CDT
Moon No Moon Rise 2:31 PM CDT
Length of Visible Light 11h 50m
Length of Day
10h 55m
Waning Gibbous, 59% of the Moon is Illuminated
Oct 20
Waning Gibbous
Oct 21
Last Quarter
Oct 27
New
Nov 4
First Quarter
Nov 12
Full

Hourly Weather History & Observations

Time (CDT) Temp. Windchill Dew Point Humidity Pressure Visibility Wind Dir Wind Speed Gust Speed Precip Events Conditions
12:53 AM 42.1 °F 36.1 °F 28.0 °F 58% 29.67 in 10.0 mi SE 10.4 mph - N/A   Partly Cloudy
1:53 AM 37.9 °F 30.9 °F 27.0 °F 65% 29.63 in 10.0 mi SE 10.4 mph - N/A   Clear
2:53 AM 51.1 °F - 30.0 °F 44% 29.57 in 10.0 mi South 15.0 mph 27.6 mph N/A   Clear
3:53 AM 53.1 °F - 30.9 °F 43% 29.53 in 10.0 mi South 16.1 mph 28.8 mph N/A   Clear
4:53 AM 52.0 °F - 30.9 °F 45% 29.50 in 10.0 mi South 18.4 mph 28.8 mph N/A   Clear
5:53 AM 52.0 °F - 32.0 °F 47% 29.48 in 10.0 mi SSE 18.4 mph 32.2 mph N/A   Clear
6:53 AM 52.0 °F - 32.0 °F 47% 29.54 in 10.0 mi South 9.2 mph 24.2 mph N/A   Clear
7:53 AM 51.1 °F - 33.1 °F 50% 29.55 in 10.0 mi South 12.7 mph - N/A   Clear
8:53 AM 51.1 °F - 34.0 °F 52% 29.57 in 10.0 mi SSW 11.5 mph - N/A   Clear
9:53 AM 51.1 °F - 33.1 °F 50% 29.61 in 10.0 mi West 11.5 mph - N/A   Partly Cloudy
10:53 AM 53.1 °F - 26.1 °F 35% 29.60 in 10.0 mi NW 17.3 mph 33.4 mph 0.00 in Rain Light Rain
11:53 AM 54.0 °F - 26.1 °F 34% 29.60 in 10.0 mi WNW 15.0 mph 26.5 mph 0.00 in   Clear
12:53 PM 59.0 °F - 24.1 °F 26% 29.57 in 10.0 mi NW 20.7 mph 31.1 mph N/A   Partly Cloudy
1:53 PM 55.9 °F - 24.1 °F 29% 29.57 in 10.0 mi West 16.1 mph - N/A   Clear
2:53 PM 54.0 °F - 21.9 °F 29% 29.54 in 10.0 mi West 16.1 mph - N/A   Mostly Cloudy
3:53 PM 60.1 °F - 23.0 °F 24% 29.49 in 10.0 mi WSW 10.4 mph - N/A   Clear
4:53 PM 60.1 °F - 23.0 °F 24% 29.48 in 10.0 mi WSW 18.4 mph 29.9 mph N/A   Clear
5:53 PM 54.0 °F - 30.0 °F 40% 29.53 in 10.0 mi West 24.2 mph 34.5 mph N/A   Clear
6:53 PM 50.0 °F - 30.9 °F 48% 29.53 in 10.0 mi West 16.1 mph - N/A   Clear
7:53 PM 48.9 °F - 33.1 °F 54% 29.55 in 10.0 mi WNW 15.0 mph - N/A   Overcast
8:53 PM 46.0 °F 38.5 °F 33.1 °F 61% 29.56 in 10.0 mi WNW 19.6 mph 28.8 mph N/A   Overcast
9:09 PM 46.0 °F 37.8 °F 33.1 °F 61% 29.58 in 10.0 mi WNW 23.0 mph 34.5 mph N/A   Overcast
9:53 PM 44.1 °F 35.0 °F 35.1 °F 71% 29.58 in 10.0 mi NW 24.2 mph 34.5 mph 0.00 in Rain Light Rain
10:53 PM 42.1 °F 32.1 °F 32.0 °F 67% 29.60 in 10.0 mi NW 25.3 mph 36.8 mph 0.00 in Rain Light Rain
11:53 PM 41.0 °F 29.8 °F 32.0 °F 70% 29.60 in 10.0 mi NNW 29.9 mph 48.3 mph 0.00 in   Overcast